Location: Unspecified
(0.0000°N, 0.0000°E)
Time: 23:18:25
(UTC+00:00)

CZ-3 Stage 3 - Pass Details

Date: 22 May 2019
Orbit: 501 x 34691 km, 30.5° (Epoch: 18 June)

Event Time Altitude Azimuth Distance (km) Brightness Sun altitude
Rises 20:17:05 0° 259° (W) 2,914 6.2 -32.6°
Reaches altitude 10° 20:19:38 10° 277° (W) 1,715 5.1 -33.2°
Enters shadow 20:20:26 15° 289° (WNW) 1,412 4.6 -33.4°
